Pittsfield, MA

11:08 PM EDT on October 23, 2019 (GMT -0400)
Pittsfield Municipal

Weather History for KPSF - August, 2019

Change the Weather History Date:

Thursday, August 1, 2019

  Actual Average Record
Temperature  
Mean Temperature 70 °F 68 °F  
Max Temperature 81 °F 79 °F 94 °F (1933)
Min Temperature 59 °F 57 °F 43 °F (1964)
Degree Days  
Heating Degree Days 0 1  
Month to date heating degree days 0 1  
Since 1 June heating degree days 67 133  
Since 1 July heating degree days 0 32  
Cooling Degree Days 5 4  
Month to date cooling degree days 5 4  
Year to date cooling degree days 281 181  
Since 1 June cooling degree days 275 168  
Growing Degree Days 20 (Base 50)    
Moisture  
Dew Point 58 °F    
Average Humidity 68    
Maximum Humidity 93    
Minimum Humidity 42    
Precipitation  
Precipitation 0.00 in 0.15 in 1.38 in (2018)
Month to date precipitation 0.00 0.15  
Year to date precipitation 26.14 25.84  
Sea Level Pressure  
Sea Level Pressure 30.05 in    
Wind  
Wind Speed 3 mph (NW)    
Max Wind Speed 14 mph    
Max Gust Speed 21 mph    
Visibility 9 miles    
Events      
T = Trace of Precipitation, MM = Missing Value Source: NWS Daily Summary

Daily Weather History Graph

Daily Weather History Graph

Search for Another Location

Airport or City:

Astronomy

Aug. 01, 2019 Rise Set
Actual Time 5:45 AM EDT 8:13 PM EDT
Civil Twilight 5:13 AM EDT 8:44 PM EDT
Nautical Twilight 4:33 AM EDT 9:24 PM EDT
Astronomical Twilight 3:49 AM EDT 10:08 PM EDT
Moon 6:06 AM EDT (8/1) 8:57 PM EDT (8/1)
Length of Visible Light 15h 31m
Length of Day
14h 27m
New Moon, 0% of the Moon is Illuminated
Aug 1
New Moon
Aug 7
First Quarter
Aug 15
Full
Aug 23
Last Quarter
Aug 30
New

Hourly Weather History & Observations

Time (EDT) Temp. Heat Index Dew Point Humidity Pressure Visibility Wind Dir Wind Speed Gust Speed Precip Events Conditions
12:54 AM 68.0 °F - 63.0 °F 84% 30.00 in 10.0 mi West 5.8 mph - N/A   Clear
1:54 AM 66.0 °F - 62.1 °F 87% 30.00 in 10.0 mi WSW 5.8 mph - N/A   Clear
2:54 AM 66.0 °F - 61.0 °F 84% 30.01 in 10.0 mi WSW 3.5 mph - N/A   Clear
3:54 AM 64.0 °F - 59.0 °F 84% 30.00 in 10.0 mi Calm Calm - N/A   Clear
4:54 AM 60.1 °F - 55.9 °F 86% 30.01 in 10.0 mi Calm Calm - N/A   Clear
5:26 AM 60.1 °F - 57.9 °F 93% 30.08 in 10.0 mi Calm Calm - N/A   Partly Cloudy
5:54 AM 59.0 °F - 57.0 °F 93% 30.02 in 10.0 mi Calm Calm - N/A   Clear
6:54 AM 60.1 °F - 57.0 °F 90% 30.04 in 9.0 mi Calm Calm - N/A   Clear
7:09 AM 61.0 °F - 59.0 °F 93% 30.11 in 1.5 mi Calm Calm - N/A   Partly Cloudy
7:11 AM 61.0 °F - 59.0 °F 93% 30.11 in 0.8 mi Calm Calm - N/A   Mist
7:23 AM 62.1 °F - 59.0 °F 90% 30.11 in 1.0 mi Calm Calm - N/A   Mist
7:31 AM 63.0 °F - 60.1 °F 90% 30.11 in 1.5 mi Calm Calm - N/A   Scattered Clouds
7:34 AM 63.0 °F - 60.1 °F 90% 30.11 in 3.0 mi Calm Calm - N/A   Scattered Clouds
7:54 AM 64.9 °F - 60.1 °F 84% 30.05 in 10.0 mi Calm Calm - N/A   Clear
8:54 AM 69.1 °F - 61.0 °F 75% 30.06 in 10.0 mi Calm Calm - N/A   Clear
9:54 AM 73.9 °F - 61.0 °F 64% 30.04 in 10.0 mi Calm Calm - N/A   Clear
10:54 AM 78.1 °F - 57.0 °F 48% 30.05 in 10.0 mi NNE 9.2 mph - N/A   Scattered Clouds
11:54 AM 78.1 °F - 55.0 °F 45% 30.05 in 10.0 mi Variable 3.5 mph - N/A   Overcast
12:54 PM 80.1 °F 80.1 °F 55.0 °F 42% 30.06 in 10.0 mi NNE 5.8 mph - N/A   Clear
1:54 PM 81.0 °F 80.8 °F 55.9 °F 42% 30.06 in 10.0 mi NW 8.1 mph - N/A   Clear
2:54 PM 81.0 °F 80.8 °F 55.9 °F 42% 30.05 in 10.0 mi NNW 8.1 mph - N/A   Scattered Clouds
3:54 PM 81.0 °F 80.7 °F 55.0 °F 41% 30.04 in 10.0 mi NW 9.2 mph 20.7 mph N/A   Clear
4:54 PM 80.1 °F 80.1 °F 55.0 °F 42% 30.04 in 10.0 mi North 8.1 mph - N/A   Clear
5:54 PM 80.1 °F 80.2 °F 55.9 °F 43% 30.03 in 10.0 mi NNW 4.6 mph - N/A   Clear
6:54 PM 78.1 °F - 55.9 °F 46% 30.03 in 10.0 mi North 4.6 mph - N/A   Clear
7:54 PM 73.0 °F - 59.0 °F 61% 30.04 in 10.0 mi Calm Calm - N/A   Clear
8:54 PM 66.0 °F - 59.0 °F 78% 30.05 in 10.0 mi Calm Calm - N/A   Clear
9:54 PM 64.0 °F - 59.0 °F 84% 30.07 in 10.0 mi Calm Calm - N/A   Clear
10:54 PM 62.1 °F - 57.9 °F 86% 30.07 in 10.0 mi Calm Calm - N/A   Clear
11:54 PM 61.0 °F - 57.0 °F 87% 30.09 in 10.0 mi Calm Calm - N/A   Clear